Time,TemperatureF,DewpointF,PressureIn,WindDirection,WindDirectionDegrees,WindSpeedMPH,WindSpeedGustMPH,Humidity,HourlyPrecipIn,Conditions,Clouds,dailyrainin,SolarRadiationWatts/m^2,SoftwareType,DateUTC
2013-02-10 00:11:00,71.0,60.0,30.14,NNE,18,6.0,21.0,69,0.00,,,0.00,0.000000,,2013-02-10 10:11:00,
2013-02-10 00:21:00,71.0,60.0,30.14,NNE,18,6.0,21.0,69,0.00,,,0.00,0.000000,,2013-02-10 10:21:00,
2013-02-10 00:31:00,71.0,60.0,30.14,NNE,18,6.0,21.0,69,0.00,,,0.00,0.000000,,2013-02-10 10:31:00,
2013-02-10 00:41:00,71.0,60.0,30.14,NNE,18,6.0,21.0,69,0.00,,,0.00,0.000000,,2013-02-10 10:41:00,
2013-02-10 00:51:00,71.0,60.0,30.14,NNE,18,6.0,21.0,69,0.00,,,0.00,0.000000,,2013-02-10 10:51:00,
2013-02-10 01:11:00,70.0,60.0,30.14,North,9,11.0,25.0,71,0.00,,,0.00,0.000000,,2013-02-10 11:11:00,
2013-02-10 01:21:00,70.0,60.0,30.14,North,9,11.0,25.0,71,0.00,,,0.00,0.000000,,2013-02-10 11:21:00,
2013-02-10 01:32:00,70.0,60.0,30.14,North,9,11.0,25.0,71,0.00,,,0.00,0.000000,,2013-02-10 11:32:00,
2013-02-10 01:42:00,70.0,60.0,30.14,North,9,11.0,25.0,71,0.00,,,0.00,0.000000,,2013-02-10 11:42:00,
2013-02-10 01:52:00,70.0,60.0,30.14,North,9,11.0,25.0,71,0.00,,,0.00,0.000000,,2013-02-10 11:52:00,
2013-02-10 02:12:00,71.0,61.0,30.13,NNE,22,9.0,21.0,71,0.00,,,0.00,0.000000,,2013-02-10 12:12:00,
2013-02-10 02:21:00,71.0,61.0,30.13,NNE,22,9.0,21.0,71,0.00,,,0.00,0.000000,,2013-02-10 12:21:00,
2013-02-10 02:32:00,71.0,61.0,30.13,NNE,22,9.0,21.0,71,0.00,,,0.00,0.000000,,2013-02-10 12:32:00,
2013-02-10 02:41:00,71.0,61.0,30.13,NNE,22,9.0,21.0,71,0.00,,,0.00,0.000000,,2013-02-10 12:41:00,
2013-02-10 02:52:00,71.0,61.0,30.13,NNE,22,9.0,21.0,71,0.00,,,0.00,0.000000,,2013-02-10 12:52:00,
2013-02-10 05:11:00,71.0,61.0,30.12,North,3,9.0,16.0,70,-99.99,,,0.00,0.000000,,2013-02-10 15:11:00,
2013-02-10 05:21:00,71.0,61.0,30.12,North,3,9.0,16.0,70,-99.99,,,0.00,0.000000,,2013-02-10 15:21:00,
2013-02-10 05:31:00,71.0,61.0,30.12,North,3,9.0,16.0,70,-99.99,,,0.00,0.000000,,2013-02-10 15:31:00,
2013-02-10 05:41:00,71.0,61.0,30.12,North,3,9.0,16.0,70,-99.99,,,0.00,0.000000,,2013-02-10 15:41:00,
2013-02-10 05:51:00,71.0,61.0,30.12,North,3,9.0,16.0,70,-99.99,,,0.00,0.000000,,2013-02-10 15:51:00,
2013-02-10 06:11:00,70.0,60.0,30.13,NNE,13,9.0,28.0,71,0.00,,,0.00,0.000000,,2013-02-10 16:11:00,
2013-02-10 06:21:00,70.0,60.0,30.13,NNE,13,9.0,28.0,71,0.00,,,0.00,0.000000,,2013-02-10 16:21:00,
2013-02-10 06:32:00,70.0,60.0,30.13,NNE,13,9.0,28.0,71,0.00,,,0.00,0.000000,,2013-02-10 16:32:00,
2013-02-10 06:42:00,70.0,60.0,30.13,NNE,13,9.0,28.0,71,0.00,,,0.00,0.000000,,2013-02-10 16:42:00,
2013-02-10 06:51:00,70.0,60.0,30.13,NNE,13,9.0,28.0,71,0.00,,,0.00,0.000000,,2013-02-10 16:51:00,
2013-02-10 07:21:00,69.0,60.0,30.14,North,358,12.0,18.0,72,0.00,,,0.00,0.000000,,2013-02-10 17:21:00,
2013-02-10 07:32:00,69.0,60.0,30.14,North,358,12.0,18.0,72,0.00,,,0.00,0.000000,,2013-02-10 17:32:00,
2013-02-10 07:42:00,69.0,60.0,30.14,North,358,12.0,18.0,72,0.00,,,0.00,0.000000,,2013-02-10 17:42:00,
2013-02-10 07:52:00,69.0,60.0,30.14,North,358,12.0,18.0,72,0.00,,,0.00,0.000000,,2013-02-10 17:52:00,
2013-02-10 08:21:00,72.0,61.0,30.17,North,3,15.0,28.0,69,0.00,,,0.00,38.000000,,2013-02-10 18:21:00,
2013-02-10 08:31:00,72.0,61.0,30.17,North,3,15.0,28.0,69,0.00,,,0.00,38.000000,,2013-02-10 18:31:00,
2013-02-10 08:41:00,72.0,61.0,30.17,North,3,15.0,28.0,69,0.00,,,0.00,38.000000,,2013-02-10 18:41:00,
2013-02-10 08:51:00,72.0,61.0,30.17,North,3,15.0,28.0,69,0.00,,,0.00,38.000000,,2013-02-10 18:51:00,
2013-02-10 09:11:00,74.0,59.0,30.20,NNE,14,11.0,24.0,60,0.00,,,0.00,180.000000,,2013-02-10 19:11:00,
2013-02-10 09:21:00,74.0,59.0,30.20,NNE,14,11.0,24.0,60,0.00,,,0.00,180.000000,,2013-02-10 19:21:00,
2013-02-10 09:32:00,74.0,59.0,30.20,NNE,14,11.0,24.0,60,0.00,,,0.00,180.000000,,2013-02-10 19:32:00,
2013-02-10 09:42:00,74.0,59.0,30.20,NNE,14,11.0,24.0,60,0.00,,,0.00,180.000000,,2013-02-10 19:42:00,
2013-02-10 09:51:00,74.0,59.0,30.20,NNE,14,11.0,24.0,60,0.00,,,0.00,180.000000,,2013-02-10 19:51:00,
2013-02-10 10:11:00,79.0,60.0,30.21,ENE,70,15.0,25.0,53,0.00,,,0.00,463.000000,,2013-02-10 20:11:00,
2013-02-10 10:21:00,79.0,60.0,30.21,ENE,70,15.0,25.0,53,0.00,,,0.00,463.000000,,2013-02-10 20:21:00,
2013-02-10 10:32:00,79.0,60.0,30.21,ENE,70,15.0,25.0,53,0.00,,,0.00,463.000000,,2013-02-10 20:32:00,
2013-02-10 10:42:00,79.0,60.0,30.21,ENE,70,15.0,25.0,53,0.00,,,0.00,463.000000,,2013-02-10 20:42:00,
2013-02-10 10:52:00,79.0,60.0,30.21,ENE,70,15.0,25.0,53,0.00,,,0.00,463.000000,,2013-02-10 20:52:00,
2013-02-10 11:11:00,80.0,62.0,30.20,ENE,71,17.0,28.0,54,0.00,,,0.00,834.000000,,2013-02-10 21:11:00,
2013-02-10 11:21:00,80.0,62.0,30.20,ENE,71,17.0,28.0,54,0.00,,,0.00,834.000000,,2013-02-10 21:21:00,
2013-02-10 11:32:00,80.0,62.0,30.20,ENE,71,17.0,28.0,54,0.00,,,0.00,834.000000,,2013-02-10 21:32:00,
2013-02-10 11:42:00,80.0,62.0,30.20,ENE,71,17.0,28.0,54,0.00,,,0.00,834.000000,,2013-02-10 21:42:00,
2013-02-10 11:51:00,80.0,62.0,30.20,ENE,71,17.0,28.0,54,0.00,,,0.00,834.000000,,2013-02-10 21:51:00,
2013-02-10 12:21:00,82.0,61.0,30.17,NE,45,20.0,42.0,49,0.00,,,0.00,1018.000000,,2013-02-10 22:21:00,
2013-02-10 12:32:00,82.0,61.0,30.17,NE,45,20.0,42.0,49,0.00,,,0.00,1018.000000,,2013-02-10 22:32:00,
2013-02-10 12:42:00,82.0,61.0,30.17,NE,45,20.0,42.0,49,0.00,,,0.00,1018.000000,,2013-02-10 22:42:00,
2013-02-10 12:52:00,82.0,61.0,30.17,NE,45,20.0,42.0,49,0.00,,,0.00,1018.000000,,2013-02-10 22:52:00,
2013-02-10 13:11:00,82.0,62.0,30.15,ENE,69,19.0,30.0,51,0.00,,,0.00,1017.000000,,2013-02-10 23:11:00,
2013-02-10 13:21:00,82.0,62.0,30.15,ENE,69,19.0,30.0,51,0.00,,,0.00,1017.000000,,2013-02-10 23:21:00,
2013-02-10 13:32:00,82.0,62.0,30.15,ENE,69,19.0,30.0,51,0.00,,,0.00,1017.000000,,2013-02-10 23:32:00,
2013-02-10 13:41:00,82.0,62.0,30.15,ENE,69,19.0,30.0,51,0.00,,,0.00,1017.000000,,2013-02-10 23:41:00,
2013-02-10 13:52:00,82.0,62.0,30.15,ENE,69,19.0,30.0,51,0.00,,,0.00,1017.000000,,2013-02-10 23:52:00,
2013-02-10 14:22:00,82.0,61.0,30.12,ENE,68,18.0,32.0,49,0.00,,,0.00,953.000000,,2013-02-11 00:22:00,
2013-02-10 14:32:00,82.0,61.0,30.12,ENE,68,18.0,32.0,49,0.00,,,0.00,953.000000,,2013-02-11 00:32:00,
2013-02-10 14:41:00,82.0,61.0,30.12,ENE,68,18.0,32.0,49,0.00,,,0.00,953.000000,,2013-02-11 00:41:00,
2013-02-10 14:51:00,82.0,61.0,30.12,ENE,68,18.0,32.0,49,0.00,,,0.00,953.000000,,2013-02-11 00:51:00,
2013-02-10 15:11:00,81.0,58.0,30.10,NE,54,22.0,37.0,45,0.00,,,0.00,948.000000,,2013-02-11 01:11:00,
2013-02-10 15:21:00,81.0,58.0,30.10,NE,54,22.0,37.0,45,0.00,,,0.00,948.000000,,2013-02-11 01:21:00,
2013-02-10 15:32:00,81.0,58.0,30.10,NE,54,22.0,37.0,45,0.00,,,0.00,948.000000,,2013-02-11 01:32:00,
2013-02-10 15:41:00,81.0,58.0,30.10,NE,54,22.0,37.0,45,0.00,,,0.00,948.000000,,2013-02-11 01:41:00,
2013-02-10 15:51:00,81.0,58.0,30.10,NE,54,22.0,37.0,45,0.00,,,0.00,948.000000,,2013-02-11 01:51:00,
2013-02-10 16:21:00,81.0,61.0,30.08,ENE,60,19.0,34.0,50,0.00,,,0.00,708.000000,,2013-02-11 02:21:00,
2013-02-10 16:31:00,81.0,61.0,30.08,ENE,60,19.0,34.0,50,0.00,,,0.00,708.000000,,2013-02-11 02:31:00,
2013-02-10 16:41:00,81.0,61.0,30.08,ENE,60,19.0,34.0,50,0.00,,,0.00,708.000000,,2013-02-11 02:41:00,
2013-02-10 16:52:00,81.0,61.0,30.08,ENE,60,19.0,34.0,50,0.00,,,0.00,708.000000,,2013-02-11 02:52:00,
2013-02-10 17:21:00,77.0,61.0,30.09,ENE,58,21.0,34.0,58,0.00,,,0.00,515.000000,,2013-02-11 03:21:00,
2013-02-10 17:31:00,77.0,61.0,30.09,ENE,58,21.0,34.0,58,0.00,,,0.00,515.000000,,2013-02-11 03:31:00,
2013-02-10 17:41:00,77.0,61.0,30.09,ENE,58,21.0,34.0,58,0.00,,,0.00,515.000000,,2013-02-11 03:41:00,
2013-02-10 17:51:00,77.0,61.0,30.09,ENE,58,21.0,34.0,58,0.00,,,0.00,515.000000,,2013-02-11 03:51:00,
2013-02-10 18:21:00,77.0,61.0,30.10,NE,46,19.0,34.0,58,0.00,,,0.00,238.000000,,2013-02-11 04:21:00,
2013-02-10 18:31:00,77.0,61.0,30.10,NE,46,19.0,34.0,58,0.00,,,0.00,238.000000,,2013-02-11 04:31:00,
2013-02-10 18:41:00,77.0,61.0,30.10,NE,46,19.0,34.0,58,0.00,,,0.00,238.000000,,2013-02-11 04:41:00,
2013-02-10 18:51:00,77.0,61.0,30.10,NE,46,19.0,34.0,58,0.00,,,0.00,238.000000,,2013-02-11 04:51:00,
2013-02-10 19:11:00,75.0,63.0,30.11,ENE,62,18.0,30.0,66,0.00,,,0.00,18.000000,,2013-02-11 05:11:00,
2013-02-10 19:22:00,75.0,63.0,30.11,ENE,62,18.0,30.0,66,0.00,,,0.00,18.000000,,2013-02-11 05:22:00,
2013-02-10 19:31:00,75.0,63.0,30.11,ENE,62,18.0,30.0,66,0.00,,,0.00,18.000000,,2013-02-11 05:31:00,
2013-02-10 19:41:00,75.0,63.0,30.11,ENE,62,18.0,30.0,66,0.00,,,0.00,18.000000,,2013-02-11 05:41:00,
2013-02-10 19:52:00,75.0,63.0,30.11,ENE,62,18.0,30.0,66,0.00,,,0.00,18.000000,,2013-02-11 05:52:00,
2013-02-10 20:11:00,75.0,62.0,30.14,NE,51,18.0,33.0,65,0.00,,,0.00,0.000000,,2013-02-11 06:11:00,
2013-02-10 20:21:00,75.0,62.0,30.14,NE,51,18.0,33.0,65,0.00,,,0.00,0.000000,,2013-02-11 06:21:00,
2013-02-10 20:32:00,75.0,62.0,30.14,NE,51,18.0,33.0,65,0.00,,,0.00,0.000000,,2013-02-11 06:32:00,
2013-02-10 20:42:00,75.0,62.0,30.14,NE,51,18.0,33.0,65,0.00,,,0.00,0.000000,,2013-02-11 06:42:00,
2013-02-10 20:51:00,75.0,62.0,30.14,NE,51,18.0,33.0,65,0.00,,,0.00,0.000000,,2013-02-11 06:51:00,
2013-02-10 21:11:00,74.0,63.0,30.17,NE,51,11.0,28.0,68,0.00,,,0.00,0.000000,,2013-02-11 07:11:00,
2013-02-10 21:21:00,74.0,63.0,30.17,NE,51,11.0,28.0,68,0.00,,,0.00,0.000000,,2013-02-11 07:21:00,
2013-02-10 21:32:00,74.0,63.0,30.17,NE,51,11.0,28.0,68,0.00,,,0.00,0.000000,,2013-02-11 07:32:00,
2013-02-10 21:41:00,74.0,63.0,30.17,NE,51,11.0,28.0,68,0.00,,,0.00,0.000000,,2013-02-11 07:41:00,
2013-02-10 21:51:00,74.0,63.0,30.17,NE,51,11.0,28.0,68,0.00,,,0.00,0.000000,,2013-02-11 07:51:00,
2013-02-10 22:11:00,73.0,61.0,30.19,NE,49,11.0,24.0,65,0.00,,,0.00,0.000000,,2013-02-11 08:11:00,
2013-02-10 22:21:00,73.0,61.0,30.19,NE,49,11.0,24.0,65,0.00,,,0.00,0.000000,,2013-02-11 08:21:00,
2013-02-10 22:31:00,73.0,61.0,30.19,NE,49,11.0,24.0,65,0.00,,,0.00,0.000000,,2013-02-11 08:31:00,
2013-02-10 22:42:00,73.0,61.0,30.19,NE,49,11.0,24.0,65,0.00,,,0.00,0.000000,,2013-02-11 08:42:00,
2013-02-10 22:51:00,73.0,61.0,30.19,NE,49,11.0,24.0,65,0.00,,,0.00,0.000000,,2013-02-11 08:51:00,
2013-02-10 23:12:00,73.0,61.0,30.19,NE,51,16.0,29.0,65,0.00,,,0.00,0.000000,,2013-02-11 09:12:00,
2013-02-10 23:21:00,73.0,61.0,30.19,NE,51,16.0,29.0,65,0.00,,,0.00,0.000000,,2013-02-11 09:21:00,
2013-02-10 23:31:00,73.0,61.0,30.19,NE,51,16.0,29.0,65,0.00,,,0.00,0.000000,,2013-02-11 09:31:00,
2013-02-10 23:41:00,73.0,61.0,30.19,NE,51,16.0,29.0,65,0.00,,,0.00,0.000000,,2013-02-11 09:41:00,
2013-02-10 23:51:00,73.0,61.0,30.19,NE,51,16.0,29.0,65,0.00,,,0.00,0.000000,,2013-02-11 09:51:00,